TimeHST,TemperatureF,Dew PointF,Humidity,Sea Level PressureIn,VisibilityMPH,Wind Direction,Wind SpeedMPH,Gust SpeedMPH,PrecipitationIn,Events,Conditions,WindDirDegrees,DateUTC
12:53 AM,72.0,64.9,78,29.99,10.0,West,3.5,-,N/A,,Partly Cloudy,280,2012-11-05 10:53:00
1:53 AM,71.1,64.0,78,29.97,10.0,West,5.8,-,N/A,,Clear,280,2012-11-05 11:53:00
2:53 AM,71.1,64.0,78,29.96,10.0,West,8.1,-,N/A,,Clear,270,2012-11-05 12:53:00
3:53 AM,70.0,64.0,81,29.96,10.0,West,8.1,-,N/A,,Scattered Clouds,270,2012-11-05 13:53:00
4:01 AM,71.6,64.4,78,29.96,10.0,West,8.1,-,N/A,,Mostly Cloudy,270,2012-11-05 14:01:00
4:53 AM,71.1,64.9,81,29.96,10.0,West,6.9,-,N/A,,Overcast,270,2012-11-05 14:53:00
5:11 AM,71.6,64.4,78,29.97,10.0,West,8.1,-,N/A,,Scattered Clouds,280,2012-11-05 15:11:00
5:53 AM,70.0,64.9,84,29.97,10.0,West,8.1,-,N/A,,Clear,280,2012-11-05 15:53:00
6:53 AM,70.0,64.9,84,29.98,10.0,West,8.1,-,N/A,,Clear,270,2012-11-05 16:53:00
7:53 AM,73.9,66.0,76,29.99,10.0,West,5.8,-,N/A,,Clear,280,2012-11-05 17:53:00
8:53 AM,79.0,66.9,66,30.00,10.0,North,6.9,-,N/A,,Clear,360,2012-11-05 18:53:00
9:53 AM,80.1,66.9,64,30.01,10.0,NE,8.1,-,N/A,,Clear,40,2012-11-05 19:53:00
10:53 AM,81.0,66.0,60,30.00,10.0,NE,8.1,-,N/A,,Clear,50,2012-11-05 20:53:00
11:53 AM,82.0,66.9,60,29.98,10.0,East,9.2,-,N/A,,Clear,80,2012-11-05 21:53:00
12:53 PM,82.9,66.9,58,29.96,10.0,NE,9.2,-,N/A,,Clear,50,2012-11-05 22:53:00
1:53 PM,82.0,66.9,60,29.94,10.0,NE,10.4,-,N/A,,Clear,50,2012-11-05 23:53:00
2:53 PM,82.0,66.9,60,29.92,10.0,NE,10.4,-,N/A,,Partly Cloudy,50,2012-11-06 00:53:00
3:53 PM,80.1,68.0,67,29.93,10.0,NE,11.5,-,N/A,,Scattered Clouds,40,2012-11-06 01:53:00
4:53 PM,79.0,66.9,66,29.94,10.0,NE,13.8,-,N/A,,Mostly Cloudy,40,2012-11-06 02:53:00
5:00 PM,78.8,68.0,69,29.95,10.0,NE,12.7,-,N/A,,Scattered Clouds,40,2012-11-06 03:00:00
5:53 PM,77.0,66.9,71,29.95,10.0,NE,15.0,-,N/A,,Scattered Clouds,40,2012-11-06 03:53:00
6:53 PM,77.0,66.9,71,29.96,10.0,NE,15.0,-,N/A,,Scattered Clouds,50,2012-11-06 04:53:00
7:53 PM,77.0,66.0,69,29.98,10.0,NE,15.0,-,N/A,,Partly Cloudy,50,2012-11-06 05:53:00
8:53 PM,77.0,66.0,69,29.99,10.0,NE,15.0,-,N/A,,Scattered Clouds,50,2012-11-06 06:53:00
9:53 PM,77.0,66.9,71,29.99,10.0,NE,13.8,-,N/A,,Scattered Clouds,50,2012-11-06 07:53:00
10:53 PM,77.0,66.9,71,29.99,10.0,ENE,16.1,-,N/A,,Clear,60,2012-11-06 08:53:00
11:53 PM,77.0,68.0,74,29.98,10.0,NE,15.0,-,N/A,,Scattered Clouds,40,2012-11-06 09:53:00